FW1436 Weather Reports


time (UTC)temp
C
wind
direction
speed
KPH
gust
KPH
rain 1hr
cm
rain 24hr
cm
rain mn
cm
humidity
%
barometer
mb
20260503203018 15 269 0.0 4.8 0.00 0.00 0.00 67 1009.0
20260503201617 15 269 0.0 8.0 0.00 0.00 0.00 67 1008.8
20260503200057 15 250 0.0 8.0 0.00 0.00 0.00 66 1008.6
20260503194517 15 318 3.2 9.7 0.00 0.00 0.00 66 1008.5
20260503193034 15 304 3.2 9.7 0.00 0.00 0.00 66 1008.1
20260503191514 16 262 3.2 12.9 0.00 0.00 0.00 66 1008.1
20260503190014 16 233 3.2 11.3 0.00 0.00 0.00 65 1008.0
20260503184520 16 294 4.8 14.5 0.00 0.00 0.00 64 1008.0
20260503183012 16 272 4.8 14.5 0.00 0.00 0.00 63 1007.9
20260503181512 17 71 3.2 8.0 0.00 0.00 0.00 63 1007.9
20260503180017 17 266 6.4 12.9 0.00 0.00 0.00 63 1007.8
20260503174508 17 286 6.4 17.7 0.00 0.00 0.00 62 1007.9
20260503173019 17 312 1.6 17.7 0.00 0.00 0.00 61 1008.1
20260503171519 18 274 8.0 19.3 0.00 0.00 0.00 59 1008.2
20260503140200 18 261 11.3 22.5 0.00 0.00 0.00 56 1008.9
20260503081509 12 101 0.0 0.0 0.00 0.00 0.00 94 1011.3
20260503071507 12 359 0.0 6.4 0.00 0.00 0.00 95 1011.0
20260503060114 -17 0.0 0.0 0.00 0.00 0.00 1010.8
20260503054548 11 199 0.0 0.0 0.00 0.00 0.00 95 1010.8
20260503053049 11 113 0.0 0.0 0.00 0.00 0.00 95 1010.8
20260503051551 11 113 0.0 0.0 0.00 0.00 0.00 95 1010.7
20260503050047 11 130 0.0 0.0 0.00 0.00 0.00 95 1010.6
20260503044545 10 134 0.0 0.0 0.00 0.00 0.00 95 1010.7
20260503043045 11 134 0.0 0.0 0.00 0.00 0.00 95 1010.8
20260503041543 11 134 0.0 0.0 0.00 0.00 0.00 95 1010.7
20260503040042 11 134 0.0 0.0 0.00 0.00 0.00 95 1010.7
20260503034539 11 134 0.0 0.0 0.00 0.00 0.00 94 1010.8
20260503033045 11 134 0.0 0.0 0.00 0.00 0.00 95 1011.0
20260503031535 11 134 0.0 0.0 0.00 0.00 0.00 94 1011.1
20260503030034 11 150 0.0 0.0 0.00 0.00 0.00 94 1011.2
20260503024533 11 131 0.0 0.0 0.00 0.00 0.00 94 1011.2
20260503023031 12 123 0.0 0.0 0.00 0.00 0.00 94 1011.2
20260503021531 12 124 0.0 0.0 0.00 0.00 0.00 95 1011.3
20260503020030 12 167 0.0 0.0 0.00 0.00 0.00 95 1011.2
20260503014527 12 167 0.0 0.0 0.00 0.00 0.00 94 1011.2
20260503013033 12 167 0.0 0.0 0.00 0.00 0.00 95 1011.2
20260503011531 12 167 0.0 0.0 0.00 0.00 0.00 94 1011.4
20260503010023 12 167 0.0 0.0 0.00 0.00 0.00 94 1011.5
20260503004522 12 167 0.0 0.0 0.00 0.00 0.00 94 1011.7
20260503003020 12 167 0.0 0.0 0.00 0.00 0.00 94 1011.8
20260503001519 12 167 0.0 0.0 0.00 0.00 0.00 93 1012.0
20260503000018 13 169 0.0 0.0 0.00 0.00 0.00 93 1012.1
20260502234516 13 173 0.0 0.0 0.00 0.00 0.00 92 1011.9
20260502233017 13 144 0.0 1.6 0.00 0.00 0.00 91 1012.0
20260502231515 13 151 0.0 4.8 0.00 0.00 0.00 91 1012.1
20260502230017 13 272 0.0 0.0 0.00 0.00 0.00 90 1012.0
20260502224511 13 272 0.0 0.0 0.00 0.00 0.00 90 1012.1
20260502223009 13 272 0.0 0.0 0.00 0.00 0.00 91 1012.1
20260502221507 13 272 0.0 1.6 0.00 0.00 0.00 92 1012.2
20260502220004 13 272 0.0 1.6 0.00 0.00 0.00 93 1012.3
20260502214503 13 272 0.0 1.6 0.00 0.00 0.00 92 1012.3
20260502213002 13 272 0.0 0.0 0.00 0.00 0.00 92 1012.3
20260502211504 13 272 0.0 0.0 0.00 0.00 0.00 92 1012.0
20260502210001 13 280 0.0 1.6 0.00 0.00 0.00 92 1011.9
20260502204502 13 264 0.0 1.6 0.00 0.00 0.00 91 1011.8